View from above orbital plane
|
View from above satellite
|
Ground track
|
The orbit data is extracted from the following two-line orbital elements,
1 32785U 08021C 22176.49112813 .00001218 00000-0 13303-3 0 9998
2 32785 97.6574 147.0848 0011896 200.4140 159.6604 14.89617135767751
Epoch (UTC): | 25 June 2022 11:47:13 |
Eccentricity: | 0.0011896 |
inclination: | 97.6574° |
perigee height: | 591 km |
apogee height: | 607 km |
right ascension of ascending node: | 147.0848° |
argument of perigee: | 200.4140° |
revolutions per day: | 14.89617135 |
mean anomaly at epoch: | 159.6604° |
orbit number at epoch: | 76775 |
The dashed part of the orbit path shows where the satellite is in the earth's shadow,
|
|